This demonstration page uses our WeatherBlox Daily Observations layout. Learn more.

Left ArrowRight Arrow

39.01783, -85.05884

Hourly Observations for September 9, 2020

Temp ( °F °C ) Dew Point ( °F °C ) Humidity (%) Winds ( mph kmh ) Pressure ( in mb ) Visibility ( mi km ) Precip ( " mm )
12:52 am 00:52 Clear 74 23.3 63 17.2 69 69 SE 3 6 30.09 1019 10 16 0.00 0.00
1:52 am 01:52 Clear 72 22.2 63 17.2 73 73 Calm 30.09 1019 10 16 0.00 0.00
2:52 am 02:52 Clear 69 20.6 63 17.2 81 81 Calm 30.08 1019 10 16 0.00 0.00
3:52 am 03:52 Clear 67 19.4 62 16.7 84 84 Calm 30.09 1019 10 16 0.00 0.00
4:52 am 04:52 Clear 69 20.6 63 17.2 81 81 Calm 30.09 1019 10 16 0.00 0.00
5:52 am 05:52 Clear 68 20 64 17.8 87 87 VRB 3 6 30.11 1020 10 16 0.00 0.00
6:52 am 06:52 Clear 68 20 64 17.8 87 87 Calm 30.12 1020 10 16 0.00 0.00
7:52 am 07:52 Mostly Sunny 68 20 64 17.8 87 87 E 3 6 30.14 1021 8 13 0.00 0.00
8:52 am 08:52 Sunny 71 21.7 66 18.9 84 84 E 5 7 30.15 1021 8 13 0.00 0.00
9:52 am 09:52 Sunny 75 23.9 67 19.4 76 76 ENE 3 6 30.17 1022 10 16 0.00 0.00
10:52 am 10:52 Sunny 78 25.6 66 18.9 67 67 E 6 9 30.19 1022 10 16 0.00 0.00
11:52 am 11:52 Sunny 81 27.2 66 18.9 61 61 E 7 11 30.19 1022 10 16 0.00 0.00
12:52 pm 12:52 Mostly Sunny 84 28.9 66 18.9 55 55 VRB 5 7 30.17 1022 10 16 0.00 0.00
1:52 pm 13:52 Partly Cloudy 86 30 65 18.3 49 49 Calm 30.16 1021 10 16 0.00 0.00
2:52 pm 14:52 Mostly Sunny 88 31.1 63 17.2 43 43 ENE 9 15 30.14 1021 10 16 0.00 0.00
3:52 pm 15:52 Mostly Sunny 87 30.6 64 17.8 46 46 ENE 9 15 30.13 1020 10 16 0.00 0.00
4:52 pm 16:52 Mostly Sunny 86 30 65 18.3 49 49 VRB 6 9 30.12 1020 10 16 0.00 0.00
5:52 pm 17:52 Mostly Sunny 84 28.9 64 17.8 51 51 SE 7 11 30.13 1020 10 16 0.00 0.00
6:52 pm 18:52 Mostly Sunny 83 28.3 65 18.3 55 55 ESE 7 11 30.15 1021 10 16 0.00 0.00
7:52 pm 19:52 Partly Cloudy 79 26.1 64 17.8 60 60 SE 8 13 30.16 1021 10 16 0.00 0.00
8:52 pm 20:52 Partly Cloudy 77 25 64 17.8 64 64 Calm 30.17 1022 10 16 0.00 0.00
9:52 pm 21:52 Partly Cloudy 75 23.9 64 17.8 69 69 Calm 30.18 1022 10 16 0.00 0.00
10:52 pm 22:52 Partly Cloudy 77 25 64 17.8 64 64 ESE 5 7 30.18 1022 10 16 0.00 0.00
11:52 pm 23:52 Partly Cloudy 72 22.2 64 17.8 76 76 Calm 30.19 1022 10 16 0.00 0.00

Powered by AerisWeather